RH
22 22 22 22 21 21 19 18 16 16 17 16 16 16 16 15 15 17 17 18 17 16 16 16 18 19 18 19 20 18 21 27 28 28 29 28 30 32 35 37 33 29 30 30 29 29 28 28 30 32 35 37 39 41 44 45 45 45 45 45 44 42 41 39 39 41 41 43 47 49 49 50 54 61 70 76 78 82 86 87 87 84 82 77 72 70
20 23 24 20 20 20 19 20 18 16 16 15 15 16 16 17 17 18 18 18 18 17 17 17 18 20 21 23 25 20 20 26 28 30 31 31 31 32 33 35 35 32 32 32 30 29 28 29 30 33 35 36 36 38 40 41 40 40 39 39 40 40 39 39 40 42 42 45 48 48 50 53 57 64 72 79 81 83 86 88 88 86 83 78 74 73
24 25 22 18 18 18 20 22 20 18 18 17 16 16 17 19 20 20 20 21 20 17 18 19 17 21 27 29 27 25 25 27 27 27 30 31 30 30 31 32 35 36 35 33 31 29 29 29 30 33 36 35 35 37 39 40 38 37 37 37 36 34 36 39 40 42 44 48 50 48 49 52 57 68 75 79 83 86 89 90 89 84 80 79 77 75
27 23 17 15 17 18 19 21 20 19 19 20 18 17 19 21 21 22 24 23 20 19 20 20 21 27 34 33 28 28 30 32 31 28 27 29 29 30 32 33 35 37 37 35 33 31 30 30 32 35 37 37 37 38 39 39 38 37 37 36 33 32 35 38 38 41 44 49 51 49 49 52 60 73 79 82 86 90 93 92 88 81 77 80 80 77
22 17 13 15 17 17 16 17 18 18 19 22 20 19 20 22 22 24 25 25 24 24 22 23 27 31 34 33 31 31 33 34 34 33 32 31 29 29 31 33 37 40 40 39 37 35 35 35 36 39 41 40 39 40 40 39 39 39 38 35 32 33 35 37 38 40 42 47 52 51 51 54 61 72 78 83 87 90 91 89 85 79 77 82 81 78
17 15 14 15 16 15 14 15 17 17 18 20 21 20 20 21 23 24 25 28 29 27 24 24 28 31 33 34 32 32 35 37 37 37 38 39 36 33 32 32 35 40 43 44 44 44 43 42 42 43 43 43 42 42 42 41 42 42 42 38 36 34 35 37 39 40 42 46 49 49 50 52 58 67 76 84 88 88 88 85 83 79 78 84 83 79
15 16 17 16 16 15 14 14 16 17 17 18 19 20 20 22 25 25 26 28 30 30 28 28 30 30 31 34 34 33 38 41 41 40 40 42 42 40 39 36 35 39 43 46 49 49 49 49 48 47 46 45 44 43 43 45 49 51 50 49 48 46 42 41 42 42 44 46 47 46 49 51 54 63 74 84 89 88 87 83 81 79 77 81 81 78
17 20 21 19 19 19 17 15 15 15 16 17 18 19 21 24 26 26 27 28 30 31 31 32 32 31 34 40 41 41 44 45 43 43 42 42 42 42 43 41 41 43 43 47 49 48 50 52 50 51 54 55 56 56 56 58 63 68 70 67 65 60 51 47 48 47 47 47 47 47 51 53 52 59 71 83 87 86 85 84 81 78 76 77 78 76
19 23 24 21 21 22 18 15 14 14 14 17 19 20 22 23 25 26 27 30 33 31 30 33 31 31 38 46 48 48 48 46 43 44 45 44 45 45 45 44 44 44 43 45 47 49 56 58 56 59 63 66 72 77 78 75 73 77 79 75 70 63 53 49 51 52 50 49 48 48 52 53 51 58 69 79 84 84 83 83 81 77 75 75 76 77
22 25 24 24 25 24 20 18 18 16 15 18 20 22 23 25 28 30 30 30 32 31 31 34 31 34 45 51 54 53 49 47 47 48 47 47 48 47 47 47 45 44 43 45 45 48 55 57 56 58 59 63 74 81 84 81 78 77 75 70 66 63 58 53 51 54 55 53 51 51 53 53 52 57 68 76 80 82 82 82 81 78 76 77 78 79
27 27 27 27 26 25 24 24 23 20 19 19 21 21 23 28 31 37 39 32 31 34 36 37 31 35 49 56 58 56 52 51 52 52 50 48 49 48 48 48 46 45 45 47 48 50 53 51 52 54 54 57 64 69 72 75 74 72 70 67 64 64 64 59 55 56 60 59 55 54 54 54 53 54 63 73 77 80 80 80 81 80 79 78 78 79
30 28 29 27 25 25 25 25 25 23 22 21 23 22 22 27 29 34 38 33 33 38 38 37 33 36 49 59 62 59 56 55 54 53 51 48 48 47 48 48 48 47 48 48 50 52 53 52 52 54 55 58 60 62 68 71 68 61 59 61 59 59 63 66 65 62 63 64 60 57 56 57 57 55 60 69 75 78 79 78 78 79 79 78 78 79
31 29 29 26 24 24 24 25 24 23 23 23 25 25 24 28 27 29 37 37 35 37 35 35 39 48 58 64 66 64 59 59 56 52 50 48 48 47 48 49 49 49 50 50 51 53 55 55 54 56 57 59 61 64 67 67 63 57 57 59 58 59 61 66 72 71 71 73 70 64 61 62 62 59 58 65 72 77 77 77 77 77 78 79 80 80
31 31 30 26 25 24 24 26 26 25 26 26 27 27 28 32 32 32 39 39 34 35 36 34 41 60 71 68 68 66 62 59 55 51 49 48 48 49 49 50 50 51 52 53 54 55 57 58 58 59 60 60 61 65 67 64 61 61 62 64 64 65 64 63 68 71 74 80 81 73 67 66 66 61 56 60 68 75 78 77 75 76 78 80 81 78
33 35 32 28 27 26 25 26 27 28 28 27 29 29 30 34 35 35 37 35 31 34 38 37 44 64 75 73 70 65 60 56 54 51 49 49 51 52 53 54 54 55 56 57 57 57 58 59 59 60 62 64 65 68 69 65 63 64 64 66 67 68 67 65 67 67 70 78 80 74 69 68 68 62 56 56 65 73 77 77 75 75 78 81 81 78
33 36 34 30 28 27 27 27 27 29 30 30 29 28 28 30 32 35 36 35 32 35 42 48 54 63 69 72 72 69 64 60 57 55 52 52 55 56 58 60 60 60 61 62 63 62 61 61 60 60 62 65 67 67 67 64 63 63 63 65 67 67 67 69 69 68 69 71 68 66 67 69 70 66 57 54 62 72 77 77 75 75 78 80 80 78
34 36 37 32 28 29 31 30 30 30 32 33 28 25 27 26 27 30 30 32 34 34 43 57 64 64 63 67 71 74 73 67 62 59 56 56 58 59 62 63 63 64 65 68 68 67 66 65 64 63 63 65 66 69 68 65 63 62 63 65 66 67 70 72 73 72 72 72 67 65 69 69 69 69 61 53 59 71 77 78 79 79 81 82 79 78
36 39 39 32 30 32 32 32 33 31 31 33 30 26 26 25 28 30 30 36 38 35 44 61 68 65 64 64 67 71 73 70 66 61 58 58 59 61 63 63 63 64 66 69 71 70 70 68 67 65 65 65 68 71 71 69 66 65 65 67 67 68 69 71 75 76 77 77 76 77 78 75 71 71 67 60 62 72 77 79 83 85 87 88 83 80
36 42 42 36 35 36 36 36 37 35 32 31 31 28 27 28 30 29 30 35 35 36 50 64 66 66 66 67 67 68 70 70 65 60 58 58 59 60 63 64 66 67 69 69 71 72 71 68 67 66 65 66 67 69 71 72 72 71 70 70 68 66 67 70 75 79 81 81 84 86 84 81 77 74 70 67 69 76 79 80 85 89 92 92 88 86
39 46 47 41 39 40 41 41 41 41 35 31 32 33 33 35 35 31 30 32 31 39 57 65 63 64 67 67 67 67 69 67 63 60 59 60 60 61 64 68 70 72 73 73 72 72 71 70 70 68 66 67 66 67 70 72 75 76 75 74 70 66 67 71 76 81 84 84 87 86 81 79 78 74 70 69 72 76 79 80 83 88 92 88 84 85
39 46 51 49 47 48 48 45 43 43 37 32 34 37 37 37 37 35 34 32 32 43 60 65 63 64 66 67 68 68 69 67 62 61 61 63 64 65 68 73 75 75 75 75 73 73 72 72 72 70 68 68 67 68 71 72 74 76 78 76 72 67 66 69 75 81 85 86 86 86 83 79 75 71 69 70 74 76 76 79 84 88 91 89 82 79
39 45 55 58 56 56 55 48 43 42 40 40 42 41 41 39 38 40 41 38 39 46 55 61 66 71 71 71 71 70 70 67 63 64 65 65 66 68 72 74 76 77 76 76 76 75 74 73 73 73 71 70 70 70 71 73 75 77 77 74 71 69 67 68 73 78 82 84 84 83 84 80 72 69 68 71 77 78 76 80 86 90 92 91 86 80
48 53 60 63 60 57 57 52 47 47 47 49 50 49 49 47 43 46 48 47 48 51 54 60 71 79 76 72 71 71 69 68 68 72 73 71 68 69 72 73 75 76 75 75 75 74 73 72 72 74 74 72 71 68 67 70 73 73 72 70 68 68 69 71 74 75 77 80 80 80 79 75 70 69 70 72 76 78 78 80 84 88 91 90 88 83
53 58 61 66 65 60 59 55 53 55 55 57 58 56 56 54 51 52 53 54 56 58 61 66 73 77 76 74 74 73 73 75 76 78 78 76 71 70 72 73 72 73 73 73 74 73 72 71 70 71 72 70 68 65 63 63 65 65 64 63 61 62 65 68 71 73 74 76 78 78 77 73 69 69 71 73 75 77 79 80 79 82 88 89 89 86
49 56 57 64 70 66 60 56 57 61 62 64 68 65 60 59 58 55 55 57 61 63 63 67 74 77 77 78 78 76 77 78 78 79 79 78 76 74 73 72 70 71 74 75 76 76 74 72 70 68 67 66 65 64 63 61 61 59 58 57 57 58 60 62 64 67 71 74 75 76 76 76 74 72 72 71 72 75 77 79 77 77 84 89 90 88
53 60 57 60 69 69 63 60 64 69 68 69 73 71 66 64 60 55 54 57 62 65 65 66 73 79 79 78 78 77 77 78 78 80 81 81 80 75 73 72 70 72 75 75 76 76 74 71 69 66 65 64 63 63 62 60 59 57 55 54 54 57 60 62 63 64 67 70 71 70 71 74 76 75 73 70 70 75 78 79 76 75 80 86 88 88
59 66 63 59 62 67 66 64 67 72 74 75 76 74 71 69 64 60 59 59 61 67 72 70 69 74 79 79 78 76 78 80 81 80 80 82 80 75 72 70 69 71 74 73 72 73 73 71 69 66 64 62 61 61 59 58 56 54 53 52 52 55 58 61 63 62 61 63 65 64 63 67 71 73 73 72 74 77 79 79 77 75 78 80 84 87
62 68 69 64 63 69 71 68 67 71 76 79 78 77 74 71 69 66 64 62 60 65 76 78 71 70 76 78 77 76 76 78 79 78 77 79 78 74 72 69 66 70 75 74 72 72 72 71 69 66 63 61 60 59 57 56 54 52 50 49 50 52 53 55 57 56 55 55 57 59 60 63 67 69 70 73 77 79 80 81 80 77 77 78 80 84
65 70 72 68 67 71 72 71 69 69 72 74 75 77 77 75 73 71 69 67 65 66 72 76 74 73 76 78 77 76 75 74 76 77 75 77 78 76 74 70 67 71 76 76 75 75 73 71 70 67 65 62 60 59 58 57 54 51 49 48 48 49 49 50 50 50 51 50 49 52 55 58 62 65 67 70 73 77 81 86 86 80 78 80 82 84
68 75 76 71 70 74 75 74 73 71 71 71 71 72 74 75 75 74 73 72 72 73 73 72 75 77 78 80 80 79 79 78 79 80 80 80 81 78 76 73 70 72 77 78 77 76 75 73 72 70 68 66 64 63 62 60 57 54 51 50 49 48 48 47 47 48 49 50 49 48 49 54 59 63 66 67 68 71 77 86 90 88 86 86 86 86
69 79 80 73 75 81 81 77 77 75 74 74 75 75 74 76 77 77 78 75 76 81 81 76 79 82 80 82 83 82 82 81 81 83 84 84 82 80 79 77 73 75 79 80 78 76 74 73 72 70 69 68 67 66 65 63 60 57 55 52 50 48 46 44 43 43 45 48 51 51 50 52 56 61 65 67 68 70 76 82 87 91 92 90 89 88
72 81 83 77 80 88 86 81 81 78 75 77 81 82 80 80 80 79 80 79 78 84 87 85 85 86 83 82 85 84 83 83 83 83 85 84 82 81 81 78 75 77 80 79 77 75 72 70 70 69 69 69 69 68 68 66 64 62 59 56 53 49 46 43 42 42 43 46 50 53 53 54 55 59 62 65 67 70 77 83 84 87 91 90 89 90
73 78 82 80 83 88 86 84 84 81 80 83 87 87 83 81 79 78 79 83 85 87 90 91 89 87 85 85 86 86 85 84 83 82 83 84 82 81 81 79 77 79 79 75 73 72 70 68 69 69 69 69 69 68 67 66 65 64 62 60 57 53 49 45 43 43 43 45 48 51 54 56 58 59 60 63 65 66 73 80 82 85 90 91 89 89
70 75 80 81 83 88 89 87 86 84 85 87 89 89 88 85 82 79 79 83 88 89 89 91 90 87 87 87 88 88 87 85 84 83 83 82 81 81 81 79 77 77 76 73 71 70 68 67 67 67 67 68 68 66 64 63 62 61 61 60 59 56 53 49 46 44 43 43 45 49 54 59 63 65 64 64 65 66 70 76 80 86 91 91 90 90
64 70 76 79 82 89 93 90 87 87 89 89 89 90 88 85 82 81 81 82 84 86 88 89 89 88 89 90 89 89 88 86 85 83 82 82 80 79 79 77 74 73 72 71 71 70 67 64 63 64 66 67 66 64 63 62 59 58 57 57 57 56 55 53 49 46 45 44 46 49 54 59 64 68 69 68 68 70 74 79 84 89 91 89 90 92
58 63 70 76 81 88 92 88 87 90 92 90 90 88 86 84 81 80 83 84 83 85 87 88 88 89 90 92 91 89 88 87 86 84 84 83 81 78 77 76 74 72 71 69 68 68 66 65 64 64 66 67 65 62 61 61 60 58 56 55 55 55 55 54 51 49 48 49 50 51 54 58 64 71 74 73 74 77 81 86 90 93 93 92 93 95
57 61 67 74 80 85 88 88 88 91 91 90 89 86 84 84 83 80 82 86 86 86 85 85 86 87 89 91 90 88 86 85 85 84 83 81 80 78 76 74 73 74 74 72 70 69 67 66 65 65 66 66 63 61 60 60 59 57 55 53 53 55 55 54 53 52 51 53 55 55 56 59 65 74 76 76 80 87 91 95 97 96 96 96 95 94
56 61 65 71 80 83 83 85 87 86 86 87 88 85 82 81 79 75 78 84 86 86 85 85 86 87 87 87 86 83 81 80 81 82 82 80 80 80 79 78 77 77 78 76 74 73 69 66 66 67 67 65 63 61 60 60 58 56 54 53 51 53 55 55 55 56 56 57 59 58 58 59 65 73 78 78 84 92 96 98 99 99 98 97 95 93
54 60 63 66 75 78 77 81 85 82 80 82 82 80 79 78 73 71 74 79 81 81 81 81 83 84 85 84 83 82 82 81 82 84 83 82 81 80 80 80 79 79 79 80 79 76 72 69 68 68 67 66 64 63 62 61 59 57 55 54 52 52 55 56 57 59 61 62 63 62 61 61 63 70 78 83 87 95 98 98 98 98 97 96 95 93
56 61 62 62 69 73 72 75 80 78 75 75 76 74 74 73 71 70 72 74 75 75 75 75 78 80 81 82 82 83 83 82 83 84 84 83 82 80 79 80 80 80 81 81 80 78 75 72 71 71 71 70 68 66 66 66 64 61 58 56 55 55 56 58 58 60 63 65 66 65 65 65 64 66 74 82 90 96 100 99 98 98 96 95 95 93
61 63 64 64 68 72 71 71 75 74 71 71 73 72 70 69 70 70 70 71 73 75 74 74 75 77 78 79 80 81 81 81 82 83 83 82 83 82 81 80 81 82 82 82 80 79 78 77 77 78 78 77 74 72 70 69 67 64 61 59 58 59 60 61 60 61 64 66 67 67 66 66 67 65 68 77 88 96 99 100 99 98 97 97 96 95
62 65 68 67 67 68 68 68 70 70 68 70 72 70 68 70 73 72 71 72 75 77 76 76 76 77 78 79 81 83 83 83 84 85 84 84 84 84 84 83 82 82 81 81 80 80 80 79 79 80 80 79 78 77 75 73 70 67 64 64 64 64 64 65 64 63 64 66 68 68 68 68 70 70 72 78 88 95 98 99 100 98 96 96 96 96
60 63 67 67 65 63 62 63 66 67 66 69 72 70 70 73 75 75 74 76 78 79 80 80 80 81 82 84 86 87 86 86 86 86 85 85 85 85 85 84 84 83 83 83 83 82 82 81 81 82 82 82 83 82 81 80 78 73 70 70 70 69 69 69 70 68 67 68 69 70 71 71 73 76 79 82 86 92 96 97 99 98 97 96 96 96
59 59 62 64 61 60 60 61 61 62 65 69 71 70 72 75 75 76 78 79 79 80 81 82 82 83 85 87 87 88 88 88 88 87 86 86 86 85 85 84 83 83 82 83 83 83 83 83 84 85 85 85 86 86 86 87 85 80 75 73 72 73 73 74 74 73 72 72 72 72 73 74 75 79 82 83 85 91 95 96 98 98 97 96 96 96
65 62 63 65 65 63 63 62 62 63 67 69 69 71 76 78 77 76 76 78 79 81 82 82 83 83 85 86 86 86 86 85 84 82 82 82 83 82 81 80 79 80 80 80 81 80 80 82 83 84 85 86 87 88 89 89 88 85 80 76 74 75 76 77 77 77 76 76 76 76 76 76 77 79 82 83 85 90 95 97 98 99 98 98 97 96
68 66 65 68 70 68 66 67 68 70 71 70 70 74 79 80 78 76 76 77 81 82 81 80 78 77 77 76 75 75 74 73 73 73 72 73 73 71 71 71 72 73 75 78 80 81 81 81 82 82 83 85 86 88 89 88 86 85 83 81 78 77 78 78 77 77 77 79 80 80 79 78 79 80 82 83 84 87 91 95 97 98 99 100 99 98
69 69 68 70 71 70 70 72 73 74 75 73 71 74 78 78 77 76 75 75 75 73 69 67 66 64 61 60 60 61 62 61 62 64 64 63 62 62 63 64 64 65 66 70 74 78 81 81 81 81 81 82 83 84 85 85 84 83 83 82 81 80 81 81 79 78 77 78 80 81 81 79 79 81 84 86 86 86 88 91 94 97 98 100 100 100
69 68 68 70 70 70 72 76 77 76 76 74 74 78 81 80 77 74 73 70 66 62 59 57 55 53 52 53 55 57 57 55 55 56 56 55 54 54 55 56 55 55 56 58 61 65 70 74 77 79 80 80 81 82 83 83 83 83 83 81 81 81 82 83 83 82 80 79 81 83 83 82 81 81 83 85 86 87 88 91 94 97 98 99 100 100
69 69 69 69 69 69 71 74 74 73 74 74 77 83 84 80 76 72 68 63 58 54 51 48 44 41 41 44 46 46 46 45 44 44 44 43 41 40 41 41 41 42 42 44 45 47 50 54 57 64 71 75 77 77 78 80 81 82 82 81 81 81 81 82 83 84 83 82 84 87 88 87 85 83 84 85 85 84 86 89 92 95 97 99 100 99
70 72 69 66 67 67 70 73 74 76 78 78 77 77 74 69 66 62 56 52 47 42 38 35 30 28 27 27 28 28 29 30 29 30 30 29 28 28 28 29 30 30 30 31 32 32 33 35 36 41 50 58 64 67 70 73 75 76 77 77 79 80 80 79 79 82 83 83 84 87 90 91 91 89 89 89 89 87 87 88 90 92 94 96 97 96
71 72 68 68 72 76 77 77 74 74 76 74 70 65 60 55 50 45 40 36 32 27 24 23 21 21 21 20 21 21 22 22 23 23 23 23 23 24 24 24 25 25 25 25 25 24 24 24 25 26 29 34 41 48 54 60 66 69 71 72 73 75 77 77 77 78 81 82 82 83 85 88 90 90 90 90 91 91 91 92 93 94 94 94 94 93